Location: Neuvy-Saint-S�pulchre
(46.5950°N, 1.8122°E)
Time: 21:57:58
(UTC+02:00)

ISS - Visible Passes

Search period start: 12 October 2024 00:00
Search period end: 22 October 2024 00:00
Orbit: 411 x 424 km, 51.6° (Epoch: 12 October)

Date Brightness Start Highest point End Pass type
(mag) Time Alt. Az. Time Alt. Az. Time Alt. Az.
17 Oct -1.2 07:08:50 10° S 07:11:21 20° SE 07:13:52 10° E visible
18 Oct -0.9 06:21:39 10° SSE 06:23:10 13° SE 06:24:41 10° ESE visible
19 Oct -2.9 07:07:50 10° SW 07:11:01 47° SE 07:14:13 10° ENE visible
20 Oct -2.2 06:21:50 26° S 06:22:38 29° SE 06:25:34 10° E visible
21 Oct -0.8 05:35:39 15° ESE 05:35:39 15° ESE 05:36:41 10° E visible
21 Oct -3.9 07:08:34 21° WSW 07:10:39 80° NNW 07:13:59 10° ENE visible
